Theta_e
306 306 307 307 307 308 308 308 308 308 310 312 313 315 318 320 320 321 320 318 316 315 313 308 307 310 309 309 309 309 316 317 314 313 313 313 315 316 317 315 313 312 316 322 322 324 324
307 306 306 306 306 307 307 308 308 308 307 305 309 310 315 318 319 319 320 320 319 316 314 311 307 309 310 309 308 314 315 315 315 315 313 312 314 314 316 316 317 318 322 324 325 325 324
304 306 306 305 306 306 306 306 307 308 308 308 305 308 311 315 318 317 318 319 320 318 315 314 307 310 312 310 309 311 318 314 315 315 314 312 312 315 316 318 318 321 325 322 324 324 324
303 303 304 305 305 305 305 306 306 306 307 307 306 307 307 311 316 316 317 318 320 319 316 310 310 310 310 309 308 309 310 313 314 316 315 315 314 315 317 316 316 321 320 324 321 322 321
302 303 303 303 303 305 304 305 305 305 306 307 307 306 308 306 314 315 316 317 319 318 310 312 310 309 311 310 309 313 311 313 316 315 315 315 315 316 316 318 318 316 320 321 320 321 320
301 302 302 303 302 303 305 304 304 305 305 306 306 307 306 306 308 313 316 316 317 310 312 311 312 312 311 311 313 316 316 316 315 316 316 316 316 317 315 317 321 320 319 319 320 319 320
302 301 302 301 303 302 302 305 304 304 305 305 306 307 305 306 306 312 316 317 306 312 313 316 313 311 309 313 316 316 315 316 316 317 319 316 320 322 319 317 316 318 319 320 319 317 318
302 301 301 301 301 302 304 303 305 304 304 304 305 306 307 305 306 311 316 312 308 311 315 313 312 312 313 314 317 316 314 316 316 317 318 318 320 317 316 317 319 320 321 321 319 317 318
303 302 302 301 301 301 301 303 303 304 303 304 304 305 306 306 306 312 316 315 311 310 316 318 314 313 313 313 315 315 313 314 316 316 319 320 319 316 319 320 320 320 321 320 320 317 317
302 303 302 302 301 301 300 300 300 301 304 302 303 305 305 307 308 314 313 311 314 312 316 313 315 316 316 315 316 315 313 316 316 318 317 318 316 318 320 320 320 321 319 319 320 319 320
300 301 303 303 302 301 300 300 300 299 300 301 302 303 305 306 311 310 312 314 315 312 310 310 319 315 316 315 314 317 313 315 318 317 318 319 319 319 320 320 318 321 318 320 320 319 318
300 301 301 303 302 302 301 300 300 298 298 300 302 303 305 307 307 312 313 315 316 323 319 313 319 319 319 317 313 312 315 314 314 318 318 316 315 318 320 318 317 318 320 318 318 320 324
300 301 301 302 303 302 302 301 300 299 297 299 302 302 304 307 309 311 312 314 324 322 315 314 322 318 318 316 312 314 315 316 318 320 320 317 318 317 317 319 318 318 320 323 323 325 325
301 301 301 301 302 302 302 302 300 300 299 299 301 302 303 305 306 310 313 318 325 318 317 316 316 317 316 313 313 313 314 317 312 315 316 319 318 318 317 319 320 319 320 325 321 322 321
302 302 302 302 301 301 302 302 301 300 299 300 301 300 302 304 306 309 315 320 318 318 316 316 314 319 318 313 313 314 316 317 315 314 318 317 317 317 318 318 319 321 322 317 321 318 324
302 302 302 302 302 302 302 302 302 300 300 299 301 302 302 303 306 310 316 316 318 316 319 320 322 316 320 315 314 315 314 313 315 313 314 317 318 319 320 319 318 320 320 324 321 323 322
302 302 303 302 302 302 302 303 302 301 300 297 301 303 303 303 306 311 315 315 315 316 317 319 323 323 315 315 315 314 315 313 314 313 313 315 317 316 320 322 322 321 321 318 319 320 323
302 302 302 303 302 302 303 303 302 301 299 299 301 303 303 303 309 310 312 313 312 315 316 318 317 321 322 315 315 315 316 316 312 313 315 317 318 318 320 317 316 318 320 321 326 321 319
303 303 303 303 302 302 303 303 303 301 299 300 303 302 304 305 308 310 310 312 313 314 316 316 317 318 320 319 315 315 315 314 311 314 317 317 316 318 317 317 318 321 318 317 317 317 321
303 303 303 303 303 302 302 303 302 301 299 300 302 303 305 306 306 308 311 312 314 313 314 315 316 317 318 319 318 315 315 315 313 314 314 316 317 318 319 317 318 321 320 318 320 323 323
303 304 304 304 303 303 302 303 302 300 299 300 302 305 305 307 306 307 309 311 312 314 314 315 316 318 319 318 319 317 317 320 317 317 316 318 319 317 315 313 316 318 319 318 320 320 323
301 302 303 304 304 303 303 304 302 300 299 300 302 305 305 308 306 306 309 311 313 313 313 315 317 316 316 320 320 318 318 320 319 316 318 315 319 316 317 315 316 317 316 316 317 316 316
301 301 302 302 304 304 303 304 302 300 300 301 300 300 303 307 308 306 306 309 313 313 313 313 314 315 317 315 316 315 315 316 318 318 317 316 318 318 320 315 317 319 318 318 317 316 318
302 301 301 302 302 304 302 303 301 300 299 301 300 301 305 306 309 308 306 308 311 313 313 314 314 314 313 314 314 314 316 316 317 316 317 317 317 315 320 313 323 320 314 315 317 316 314
302 302 301 301 301 304 302 302 301 300 299 299 299 300 305 306 307 309 308 306 311 312 312 313 314 313 313 315 316 315 315 318 318 317 316 315 315 316 322 320 317 315 315 316 317 316 314
304 302 301 301 300 304 302 302 301 300 300 299 298 299 303 306 308 309 310 307 310 312 312 312 311 312 313 313 315 318 315 320 323 319 313 312 312 321 313 321 322 318 313 311 312 318 313
303 301 300 301 299 303 303 302 301 300 300 298 298 299 301 307 306 308 310 310 308 311 311 311 312 315 315 309 313 316 321 320 324 322 320 317 314 319 314 321 318 314 311 310 321 320 311
301 301 301 301 299 303 302 301 301 300 300 298 297 300 300 302 304 305 308 310 309 310 311 309 313 314 313 314 314 315 316 319 321 319 319 321 320 320 314 319 323 312 309 316 317 310 310
300 301 301 299 303 303 302 301 300 300 300 298 297 297 299 301 304 304 305 305 307 309 310 312 312 313 314 315 312 313 315 313 319 321 315 323 320 321 319 322 317 311 315 311 310 313 312
Wind_Speed
20 20 20 19 19 18 18 19 18 18 19 19 21 19 17 19 20 20 22 22 22 24 24 24 24 23 9 4 8 4 4 5 12 10 5 3 2 2 1 2 2 4 3 1 3 3 3
21 23 22 22 20 20 19 18 18 18 19 21 18 20 19 17 19 20 23 24 23 24 24 25 23 17 2 4 3 2 6 9 9 8 5 5 2 2 1 2 3 3 1 3 1 2 3
25 23 23 24 22 21 21 20 20 18 19 20 19 18 18 19 16 21 24 26 25 25 27 28 22 7 1 14 5 6 8 4 7 7 3 6 3 2 0 2 2 2 1 3 1 2 1
26 27 27 26 25 24 22 22 21 19 19 19 20 19 19 18 18 20 23 26 26 27 31 24 8 3 7 9 10 13 13 11 11 11 12 5 4 2 2 1 3 2 3 2 0 3 1
28 27 27 28 28 25 25 23 22 22 20 20 19 19 19 20 16 18 22 25 27 29 18 3 4 3 9 6 8 5 14 7 5 5 6 3 3 1 2 3 1 4 1 1 3 4 2
27 27 28 28 28 30 25 25 24 22 20 21 20 18 18 17 18 17 20 23 25 9 2 3 2 2 7 1 3 2 5 9 3 4 3 2 3 1 2 2 5 4 2 1 3 1 3
27 29 28 29 29 28 31 26 24 22 21 19 20 19 18 16 16 16 17 10 5 2 3 7 3 4 4 7 3 3 5 9 4 3 3 1 2 5 6 7 4 5 4 3 3 3 3
33 32 32 30 30 29 26 27 22 24 21 20 19 17 18 14 14 13 8 3 2 0 9 13 18 11 20 4 5 4 8 6 5 6 3 1 5 4 4 4 5 4 4 5 5 2 5
37 36 35 33 32 30 30 25 26 22 23 20 17 17 16 13 12 12 7 11 4 10 4 7 8 6 6 13 9 7 8 4 4 5 6 5 2 5 4 3 5 4 4 4 6 2 1
39 39 39 37 35 33 32 31 29 31 23 24 19 16 16 11 6 7 4 1 10 6 3 6 5 6 7 9 5 11 12 5 2 10 8 5 2 5 4 4 5 3 6 3 2 2 1
40 40 40 40 38 37 34 32 29 30 29 26 21 20 14 12 5 4 4 4 6 2 4 2 3 7 6 7 7 7 8 3 9 6 6 4 6 4 5 5 6 5 4 3 1 2 1
44 42 41 41 41 39 37 34 32 30 31 28 23 21 13 13 17 11 9 14 1 1 9 4 5 6 6 3 1 4 4 4 4 5 1 4 0 4 5 4 4 5 3 4 3 2 1
47 46 44 43 42 42 39 37 33 30 30 26 24 22 18 15 5 13 15 5 3 7 4 3 4 5 5 6 3 4 10 8 6 6 4 1 3 2 3 3 1 2 3 0 1 1 2
51 49 47 45 44 43 42 38 35 31 28 27 23 21 23 22 24 6 7 3 10 6 8 5 1 3 6 5 4 3 9 12 3 5 4 6 4 7 5 5 5 3 4 4 3 3 2
51 51 50 48 46 45 44 41 37 33 29 25 23 24 21 22 23 12 3 10 8 7 4 4 1 3 4 4 4 3 7 13 13 8 7 5 5 2 2 3 3 3 3 1 6 2 0
51 51 51 50 47 45 45 44 40 35 31 26 25 15 21 24 23 14 6 21 8 6 2 1 5 5 9 6 6 8 8 5 8 9 4 7 3 1 2 2 4 3 7 3 1 3 3
54 53 52 51 49 47 46 46 43 38 33 29 23 6 11 27 24 7 15 16 14 8 1 1 2 2 4 6 8 6 10 2 12 9 4 5 3 1 3 5 9 4 3 3 4 2 2
57 55 53 52 51 49 47 49 47 42 36 30 10 9 21 40 13 10 20 21 12 21 3 4 2 3 3 5 6 6 10 6 9 12 10 6 4 5 6 2 2 2 6 6 3 4 1
54 53 55 55 54 51 50 50 52 46 42 31 4 5 25 34 14 16 15 21 16 13 12 6 4 5 0 2 3 5 6 4 9 9 11 8 2 3 2 1 1 3 4 3 4 3 7
57 56 55 57 56 54 52 52 57 52 47 35 5 7 5 12 16 21 20 21 24 19 8 8 4 3 1 3 3 2 5 3 7 5 6 9 4 6 8 8 5 4 6 7 6 3 5
54 56 56 58 58 56 55 55 60 56 51 33 7 5 7 14 20 22 20 15 26 16 14 8 6 6 4 4 2 3 2 2 2 5 3 5 6 6 5 4 5 5 5 11 10 7 7
47 46 46 52 58 59 56 59 62 59 55 26 7 5 6 5 23 23 19 22 28 27 14 14 7 13 12 4 6 3 5 3 1 0 5 3 4 6 4 3 6 4 6 8 7 4 9
51 50 47 48 58 59 59 63 68 64 62 12 15 7 4 17 18 19 26 24 18 20 16 11 15 6 10 18 8 2 3 4 3 1 3 3 6 4 5 1 4 4 7 10 5 5 7
57 54 52 50 48 60 61 68 71 69 68 19 24 5 4 9 14 19 22 21 26 23 15 11 11 17 5 4 3 2 3 4 4 6 5 5 5 2 3 1 4 5 2 2 8 9 10
63 60 56 53 48 58 60 72 72 71 67 30 26 11 3 8 15 13 20 25 9 16 22 16 5 5 5 3 3 1 4 6 2 0 5 3 5 3 5 5 4 3 5 6 7 14 8
61 61 56 51 43 62 63 73 72 67 65 41 25 28 1 4 9 13 16 22 17 14 8 10 5 4 4 2 3 6 9 2 4 2 2 4 4 3 3 5 9 6 4 6 5 12 8
44 54 51 47 42 60 66 72 69 65 63 48 16 30 5 2 3 1 11 16 17 7 8 4 11 3 4 2 2 3 4 11 7 5 5 3 2 6 3 3 6 5 4 6 5 10 3
39 44 47 46 31 64 70 70 65 62 61 44 23 24 20 2 1 2 5 9 14 15 10 5 6 4 2 4 4 4 3 5 5 3 5 7 7 4 3 2 8 7 4 9 7 3 3
37 40 42 39 50 65 69 66 62 58 57 42 14 21 16 2 2 2 13 24 18 19 7 12 6 6 7 4 3 3 2 1 6 11 3 4 5 5 9 7 4 11 6 6 4 4 5
Wind_Direction
293 293 293 295 296 296 299 299 299 298 294 287 287 288 297 297 298 310 315 317 322 324 329 330 329 337 350 2 255 285 308 136 155 161 178 183 244 130 175 210 185 221 290 314 356 102 76
293 291 290 291 291 294 295 296 298 303 306 299 295 291 287 291 298 301 308 312 315 318 322 322 322 328 357 304 230 203 123 135 159 162 195 181 217 216 246 244 220 172 248 92 101 95 93
284 290 287 285 286 289 292 295 295 295 300 305 302 303 290 291 296 296 300 305 310 315 315 314 313 305 183 244 220 217 239 189 183 181 204 220 187 150 130 305 170 188 158 106 117 162 47
285 284 281 285 284 282 283 288 290 292 295 299 306 303 304 291 295 297 301 303 306 312 309 310 286 206 248 264 272 257 244 252 239 231 237 242 155 178 196 133 15 33 61 39 325 163 328
283 284 282 279 279 284 280 282 284 289 290 293 297 299 303 303 290 296 301 304 307 306 308 314 175 170 262 288 267 273 228 217 164 187 212 130 129 144 96 120 46 29 137 92 334 240 143
281 281 280 280 277 276 287 276 280 282 287 288 292 300 296 304 299 295 304 311 304 290 94 124 116 336 259 252 301 256 228 189 160 125 104 145 72 156 76 140 199 188 181 199 262 175 223
278 276 274 274 276 275 273 285 272 276 278 283 288 292 300 301 303 300 321 331 345 235 191 222 196 260 280 314 289 240 188 154 120 114 186 46 175 215 212 203 182 177 180 235 237 241 247
269 270 270 269 268 272 271 269 276 267 270 274 282 285 298 298 300 296 315 271 250 321 299 244 250 248 261 301 306 270 179 149 145 195 144 82 232 213 183 162 151 186 229 263 306 303 208
266 265 266 266 264 265 265 268 270 271 263 269 268 278 292 295 297 287 253 254 229 319 270 278 215 207 202 175 211 250 170 160 146 152 185 186 225 155 156 168 180 207 206 220 267 330 16
271 264 261 261 261 259 257 258 262 261 266 259 263 269 276 290 283 245 246 132 324 218 286 264 225 252 169 152 227 201 192 149 126 192 158 228 230 186 179 211 182 254 220 204 221 205 268
268 266 260 255 257 256 253 253 252 254 261 264 255 255 258 247 305 227 164 49 17 92 299 223 169 147 155 195 145 209 178 68 159 162 150 228 172 180 202 214 181 229 157 176 151 123 189
267 264 262 256 250 252 250 250 247 248 253 257 245 242 240 245 249 214 177 330 139 166 246 305 142 169 148 244 204 108 138 69 123 120 64 209 184 171 204 201 195 134 121 57 69 115 234
263 261 259 256 249 247 246 245 244 242 248 251 238 235 235 228 232 246 258 296 150 221 320 224 193 162 181 181 186 139 170 164 156 163 176 77 221 220 178 152 151 140 92 215 130 157 201
258 256 255 253 250 245 241 240 240 235 237 243 234 232 238 236 230 258 174 181 216 197 233 303 179 108 181 156 223 133 144 182 216 122 141 180 251 182 183 199 193 172 172 166 190 191 189
256 254 252 250 247 245 239 234 233 229 230 227 224 236 240 237 223 234 218 207 218 190 208 225 128 145 217 215 178 150 174 193 187 168 173 154 237 188 218 140 160 166 195 107 103 24 188
257 252 249 247 244 240 235 228 226 222 219 222 216 230 232 221 212 212 217 216 214 204 193 203 207 188 184 185 171 179 177 189 191 188 166 194 143 171 154 130 48 181 143 136 67 175 241
256 252 247 243 240 236 230 223 219 213 212 213 204 222 213 205 195 213 216 209 201 248 332 194 258 263 216 177 182 187 188 228 186 179 127 136 128 193 122 222 179 147 181 75 120 161 215
254 249 244 239 236 233 227 217 210 206 206 197 197 214 176 181 190 211 219 202 231 225 221 253 240 243 242 188 173 190 192 220 173 145 171 192 144 184 192 219 230 202 185 158 153 192 196
250 246 240 235 231 228 222 213 202 198 196 179 196 194 184 175 194 206 210 214 221 223 220 187 221 219 267 267 193 200 197 232 154 150 164 176 186 189 258 16 2 212 190 144 105 97 194
250 242 237 231 226 223 219 209 194 193 194 179 174 173 189 199 220 214 191 201 211 203 241 207 199 186 206 280 212 201 207 212 189 192 137 128 142 167 219 224 161 191 196 182 158 154 186
249 243 231 228 220 216 214 206 188 188 188 176 195 204 198 196 206 217 205 196 195 197 209 172 203 208 170 230 313 211 152 119 137 175 137 144 186 180 232 236 190 209 182 176 197 212 199
245 238 232 228 216 211 209 199 183 183 180 186 170 182 203 215 211 211 209 208 197 197 187 207 205 197 216 217 197 137 46 80 298 267 165 180 201 161 205 124 204 222 223 188 216 218 244
238 231 226 223 215 207 202 192 181 180 176 185 189 184 216 204 192 199 212 203 199 185 212 217 210 204 200 227 261 295 238 241 238 113 202 184 139 133 221 191 144 304 211 197 195 206 205
234 226 220 215 217 197 195 185 180 181 183 174 179 164 186 209 202 205 198 213 205 195 180 198 194 209 229 158 93 20 30 335 225 229 176 161 132 102 162 127 206 245 120 165 221 247 220
225 219 213 209 208 199 192 179 180 182 186 179 173 181 198 206 198 209 193 198 208 194 203 190 182 180 117 82 93 19 323 326 244 279 195 194 134 130 157 194 304 242 197 175 180 261 214
216 207 200 200 205 192 187 178 179 180 185 183 181 187 39 179 213 199 187 187 202 192 174 207 241 88 93 105 134 179 200 245 274 190 79 92 62 138 145 182 213 218 208 148 141 278 211
190 182 186 188 194 182 180 173 176 179 184 184 176 186 150 218 261 257 213 187 188 179 183 137 206 147 138 134 161 180 215 170 216 201 175 116 55 184 160 217 282 248 163 153 149 259 225
171 170 176 181 201 176 171 172 174 178 182 179 176 180 185 236 210 312 296 187 188 189 179 153 136 214 94 165 155 196 186 221 155 197 202 169 157 176 110 151 249 156 96 179 205 179 196
159 168 169 179 177 167 167 169 171 175 179 176 167 191 189 207 302 172 271 288 230 173 152 171 175 158 174 157 187 121 186 183 185 217 178 237 199 184 190 206 210 196 202 192 169 155 193